Overview Statistics Trail Chart Weather Telemetry Raw packets
 

This is the latest recevied weather packets stored in our database for station/object KF6RAL-6. If no packets are shown the sender has not sent any weather packets the latest 10 day(s).

<< 37 38 39 40 41 42 43 >>
Time Temp. Humidity Pressure Rain* Wind** Luminosity Snow
1788310273 28.33° C 30% 1010.5 hPa 0 mm - - -
1788309852 28.89° C 30% 1010.7 hPa 0 mm - - -
1788309431 28.89° C 31% 1010.8 hPa 0 mm - - -
1788309010 28.89° C 32% 1010.8 hPa 0 mm - - -
1788308589 28.33° C 32% 1010.8 hPa 0 mm - - -
1788308168 28.33° C 31% 1010.7 hPa 0 mm - - -
1788307747 28.33° C 33% 1010.8 hPa 0 mm - - -
1788307326 28.33° C 30% 1011.1 hPa 0 mm - - -
1788306907 28.33° C 29% 1011.2 hPa 0 mm - - -
1788306063 28.89° C 30% 1011.2 hPa 0 mm - - -
1788305221 28.89° C 30% 1011.1 hPa 0 mm - - -
1788304801 28.89° C 32% 1011.2 hPa 0 mm - - -
1788304379 28.89° C 32% 1011.5 hPa 0 mm - - -
1788303958 28.89° C 30% 1011.4 hPa 0 mm - - -
1788303537 28.33° C 29% 1011.6 hPa 0 mm - - -
1788303137 28.33° C 30% 1011.9 hPa 0 mm - - -
1788302695 28.33° C 28% 1012.2 hPa 0 mm - - -
1788302274 28.33° C 28% 1011.2 hPa 0 mm - - -
1788301853 28.89° C 27% 1012 hPa 0 mm - - -
1788301432 28.89° C 29% 1011.9 hPa 0 mm - - -
1788301011 28.89° C 29% 1012 hPa 0 mm - - -
1788300592 29.44° C 31% 1012.1 hPa 0 mm - - -
1788300169 28.89° C 30% 1012.1 hPa 0 mm - - -
1788299750 28.89° C 33% 1012.5 hPa 0 mm - - -
1788299327 28.89° C 31% 1012.3 hPa 0 mm - - -

* Rain latest hour (hover to see other rain measurements)
** Current wind speed in m/s (hover to see current wind gust speed)